Seattle Boeing, WA
on Tuesday, January 22, 2013

Tuesday
Previous Day Next Day
Daily Summary
 ActualAverage (KSEA)Record (KSEA)
Temperature
Mean Temperature °F 43°F  
Max Temperature 39°F 48°F 60°F (1981)
Min Temperature 30°F 37°F 19°F (1962)
Degree Days
Heating Degree Days 30 22  
Month to date heating degree days 512  
Since 1 July heating degree days 2450  
Cooling Degree Days 0 0  
Month to date cooling degree days 0  
Year to date cooling degree days 0  
Moisture
Dew Point 32°F   
Average Humidity 85    
Maximum Humidity 92    
Minimum Humidity 73    
Precipitation
Precipitation 0.00 in 0.17 in 1.29 in (1953)
Month to date precipitation 4.12  
Year to date precipitation 4.12  
Snow
Snow 0.00 in in 2.00 in (1982)
Month to date snowfall  
Since 1 July snowfall  
Snow Depth in   
Wind
Wind Speed 1 mph   
Max Wind Speed 7 mph   
Max Gust Speed mph   
Visibility 3 miles   
Events Fog   

Key: T is trace of precipitation, MM is missing value
Source: NWS Daily Summary
Time(PST)TemperatureDew PointHumidity Pressure Visibility Wind DirectionWind SpeedGust SpeedPrecipitationEvents Conditions
12:53 AM 30.9°F 28.9°F 92% 30.15 in 0.5 miles Calm Calm - N/A Fog Light Freezing Fog
1:53 AM 32.0°F 30.0°F 92% 30.14 in 0.5 miles Calm Calm - 0.00 in Fog Fog
2:53 AM 32.0°F 30.0°F 92% 30.14 in 0.1 miles Calm Calm - N/A Fog Fog
3:53 AM 33.1°F 30.9°F 92% 30.14 in 0.1 miles Calm Calm - N/A Fog Fog
4:53 AM 33.1°F 30.9°F 92% 30.12 in 0.1 miles Calm Calm - N/A Fog Fog
5:53 AM 33.1°F 30.9°F 92% 30.10 in 0.2 miles Calm Calm - N/A Fog Fog
6:53 AM 33.1°F 30.9°F 92% 30.10 in 0.5 miles ESE 3.5 mph - N/A Fog Fog
7:12 AM 33.8°F 30.2°F 87% 30.09 in 0.2 miles Calm Calm - N/A Fog Fog
7:53 AM 33.1°F 30.9°F 92% 30.09 in 0.2 miles Calm Calm - N/A Fog Fog
8:53 AM 33.1°F 30.9°F 92% 30.09 in 0.5 miles Calm Calm - N/A Fog Fog
9:53 AM 33.1°F 30.9°F 92% 30.09 in 0.5 miles Calm Calm - N/A Fog Fog
10:20 AM 33.8°F 30.2°F 87% 30.09 in 1.2 miles Calm Calm - N/A   Overcast
10:53 AM 34.0°F 30.9°F 89% 30.08 in 2.5 miles Calm Calm - N/A   Overcast
11:34 AM 35.6°F 30.2°F 81% 30.07 in 3.0 miles SSE 3.5 mph - N/A   Overcast
11:53 AM 36.0°F 30.9°F 82% 30.07 in 3.0 miles Calm Calm - N/A   Haze
12:53 PM 39.0°F 33.1°F 79% 30.04 in 6.0 miles SSE 3.5 mph - N/A   Haze
1:53 PM 39.0°F 32.0°F 76% 30.02 in 7.0 miles SE 3.5 mph - N/A   Mostly Cloudy
2:53 PM 39.9°F 33.1°F 77% 30.01 in 6.0 miles Variable 4.6 mph - N/A   Haze
3:53 PM 39.9°F 33.1°F 77% 29.99 in 6.0 miles Calm Calm - N/A   Haze
4:53 PM 39.0°F 33.1°F 79% 29.97 in 5.0 miles SE 6.9 mph - N/A   Haze
5:53 PM 39.9°F 32.0°F 73% 29.97 in 8.0 miles Calm Calm - N/A   Clear
6:53 PM 37.9°F 32.0°F 79% 29.95 in 7.0 miles ESE 3.5 mph - N/A   Overcast
7:53 PM 37.9°F 33.1°F 83% 29.94 in 8.0 miles Calm Calm - N/A   Clear
8:53 PM 37.9°F 33.1°F 83% 29.94 in 7.0 miles Calm Calm - N/A   Clear
9:53 PM 37.9°F 33.1°F 83% 29.92 in 6.0 miles SSE 4.6 mph - N/A   Haze
10:53 PM 39.0°F 33.1°F 79% 29.92 in 6.0 miles Calm Calm - N/A   Haze
11:53 PM 39.0°F 34.0°F 82% 29.94 in 7.0 miles South 6.9 mph - N/A   Scattered Clouds
Moon Phase
Jan. 22 Jan. 26 Feb. 03 Feb. 10 Feb. 17
Sunrise:07:46 AM (PST) Moon Rise:01:19 PM (PST)1/22
Sunset:04:55 PM (PST) Moon Set:04:15 AM (PST)1/22

Copyright © 2014 The Weather Underground, Inc.